Location: Cudham
(51.3000°N, 0.0667°E)
Time: 06:45:13
(UTC+00:00)

Exosat Rocket - Pass Details

Date: 19 May 2025
Orbit: 761 x 2512 km, 72.3° (Epoch: 18 June)

Event Time Altitude Azimuth Distance (km) Brightness Sun altitude
Rises 23:08:40 0° 332° (NNW) 3,398 8.3 -18.0°
Reaches altitude 10° 23:11:10 10° 333° (NNW) 2,372 7.2 -18.0°
Maximum altitude 23:16:17 82° 61° (ENE) 776 3.5 -18.2°
Enters shadow 23:18:46 31° 147° (SSE) 1,342 4.2 -18.2°
